Location: Wiesbaden
(50.0830°N, 8.2500°E)
Time: 23:30:54
(UTC+01:00)

ISS - Pass Details

Date: 11 November 2019
Orbit: 412 x 421 km, 51.6° (Epoch: 15 November)

Event Time Altitude Azimuth Distance (km) Brightness Sun altitude
Exits shadow 05:47:30 21° 213° (SSW) 992 -2.1 -16.9°
Drops below altitude 10° 05:49:57 10° 166° (SSE) 1,498 -0.7 -16.5°
Sets 05:52:20 0° 150° (SSE) 2,356 0.6 -16.2°
